LEMUR-2-ORZULAK (43731 NORAD) Tracking and Keplerian Element Data

This shows tracking and keplerian element data for the satellite.

Feedback or suggestion? Click here.




ElementValue
Catalog43731
NameLEMUR-2-ORZULAK
Epoch Orbit23097
Epoch Day14.01145116
Epoch Year2023
RAAN110.0203
Inclination97.3504
Eccentricity0.0014841
Argument of Perigee318.2235
Mean Anonmoly41.79
Mean Motion15.8378697
Decay Rate0.00482267
L11 43731U 18096N 23014.01145116 .00482267 00000+0 20644-2 0 9997
L22 43731 97.3504 110.0203 0014841 318.2235 41.7900 15.83786970230973



Live tracking and technical data element details for LEMUR-2-ORZULAK (NORAD 43731). LEMUR-2-ORZULAK can be tracked NOW for your location showing map with azimuth and elevation plus other details from your city location.







IsCatalogInMostPopularTable: catalog: 43731, numindb: 401
Update: records affected: 1



GetName: 43731 LEMUR-2-ORZULAK

Hit Count: updated at: Sat, 17 May 2025 09:50:14 GMT